This is the latest recevied weather packets stored in our database for station/object DH5DY-6. If no packets are shown the sender has not sent any weather packets the latest 10 day(s).
| Time | Temp. | Humidity | Pressure | Rain* | Wind** | Luminosity | Snow |
|---|---|---|---|---|---|---|---|
| 1777573686 | 15.56° C | 31% | 1025 hPa | 0 mm | - | 16 W/m² | - |
| 1777573087 | 16.11° C | 30% | 1024.9 hPa | 0 mm | - | 39 W/m² | - |
| 1777572486 | 16.67° C | 29% | 1024.9 hPa | 0 mm | - | 47 W/m² | - |
| 1777571886 | 16.67° C | 29% | 1025 hPa | 0 mm | - | 77 W/m² | - |
| 1777571286 | 17.22° C | 29% | 1024.9 hPa | 0 mm | - | 102 W/m² | - |
| 1777570086 | 17.22° C | 28% | 1024.7 hPa | 0 mm | - | 153 W/m² | - |
| 1777569486 | 17.78° C | 27% | 1024.9 hPa | 0 mm | - | 186 W/m² | - |
| 1777568886 | 17.78° C | 28% | 1024.9 hPa | 0 mm | - | 211 W/m² | - |
| 1777568286 | 17.78° C | 28% | 1024.9 hPa | 0 mm | - | 244 W/m² | - |
| 1777567685 | 17.78° C | 27% | 1024.9 hPa | 0 mm | - | 271 W/m² | - |
| 1777567085 | 17.78° C | 26% | 1024.9 hPa | 0 mm | - | 295 W/m² | - |
| 1777566485 | 17.78° C | 27% | 1024.9 hPa | 0 mm | - | 315 W/m² | - |
| 1777565886 | 17.78° C | 28% | 1025.1 hPa | 0 mm | - | 348 W/m² | - |
| 1777565286 | 17.78° C | 27% | 1025.1 hPa | 0 mm | - | 373 W/m² | - |
| 1777564685 | 17.78° C | 27% | 1025.4 hPa | 0 mm | - | 397 W/m² | - |
| 1777564085 | 17.78° C | 26% | 1025.1 hPa | 0 mm | - | 425 W/m² | - |
| 1777563485 | 18.89° C | 25% | 1025.2 hPa | 0 mm | - | 445 W/m² | - |
| 1777562885 | 18.33° C | 27% | 1025.1 hPa | 0 mm | - | 475 W/m² | - |
| 1777562285 | 18.33° C | 26% | 1025 hPa | 0 mm | - | 496 W/m² | - |
| 1777561685 | 18.33° C | 24% | 1025 hPa | 0 mm | - | 508 W/m² | - |
| 1777561085 | 18.33° C | 25% | 1025.2 hPa | 0 mm | - | 522 W/m² | - |
| 1777560485 | 18.33° C | 24% | 1025.1 hPa | 0 mm | - | 566 W/m² | - |
| 1777559285 | 17.78° C | 24% | 1025.3 hPa | 0 mm | - | 605 W/m² | - |
| 1777558684 | 17.78° C | 23% | 1025.4 hPa | 0 mm | - | 624 W/m² | - |
| 1777558084 | 17.78° C | 24% | 1025.5 hPa | 0 mm | - | 647 W/m² | - |
* Rain latest hour (hover to see other rain measurements)
** Current wind speed in m/s (hover to see current wind gust speed)